STARLINK-1370 (45698 NORAD) Tracking and Keplerian Element Data

This shows tracking and keplerian element data for the satellite.

Feedback or suggestion? Click here.




ElementValue
Catalog45698
NameSTARLINK-1370
Epoch Orbit1075
Epoch Day218.91667824
Epoch Year2020
RAAN221.3097
Inclination53.0001
Eccentricity0.0001326
Argument of Perigee64.5073
Mean Anonmoly201.6535
Mean Motion15.6276705
Decay Rate-0.00052793
L11 45698U 20035AT 20218.91667824 -.00052793 00000-0 -57414-3 0 9990
L22 45698 53.0001 221.3097 0001326 64.5073 201.6535 15.62767050 10758

Live tracking and technical data element details for STARLINK-1370 (NORAD 45698). STARLINK-1370 can be tracked NOW for your location showing map with azimuth and elevation plus other details from your city location.

Track the satellite on the map from your city or location and see movement details for azimuth, elevation, latitude, longitude, range, height, and movement on the map or in text.







IsCatalogInMostPopularTable: catalog: 45698, numindb: 9
Update: records affected: 1



GetName: 45698 STARLINK-1370

Hit Count: updated at: Fri, 07 Aug 2020 23:28:37 GMT